Погода в Кусе

Россия / Челябинская область     55°20′18″N   59°26′18″E
темп.,
°C
ветер,
м/с
пор.,
м/с
влажн.,
%
обл.,
%
осадки,
мм/ч
давл.,
гПа
погр.,
м
30 июня, чт
чт3023:00+5юз2109811 0.0 1011233
02:00+4юз239918 0.0 101147
05:00+4юз239996 0.0 101054
08:00+9зюз2584100 0.0 1009355
11:00+14зсз4656100 0.0 10081353
14:00+16зсз344476 0.0 10072141
17:00+14зсз2369100 0.4 1008586
20:00+12ююв118591 0.9 100811
1 июля, пт
пт123:00+8вюв119154 1.1 101010
02:00+7вюв1193100 0.0 101114
05:00+8вюв2195100 0.0 101228
08:00+10вюв2789100 0.0 1013414
11:00+11юв258194 0.0 1014505
14:00+13юв3473100 0.3 1014645
17:00+17вюв235157 0.3 10131616
20:00+13юв258569 0.4 1014141
2 июля, сб
сб223:00+10юв119256 0.6 101512
02:00+9ююв119275 0.0 101515
05:00+9юв119373 0.0 101511
08:00+12ю118488 0.0 1014171
11:00+17вюв11615 0.8 1013997
14:00+17ююз116371 0.6 1012713
17:00+18ю115753 1.7 1011833
20:00+16юз11795 0.3 101111
3 июля, вс
вс323:00+10ююв11925 0.4 101110
02:00+9ююв11935 0.0 101010
05:00+8ю11936 0.0 101010
08:00+14з117849 0.0 1008207
11:00+18с2254100 0.2 10061158
14:00+20ссз2243100 0.3 10042232
17:00+16с248299 1.6 1004122
20:00+13всв239094 1.3 100469
4 июля, пн
пн423:00+11всв1295100 1.5 100540
02:00+10ссв2699100 0.0 1005354
05:00+10ссв3799100 0.2 1006573
08:00+9ссв3798100 0.2 1008692
11:00+9ссв3897100 0.4 1010733
14:00+8ссв2797100 0.3 1011548
17:00+10ссз258898 0.6 1012687
20:00+10с1389100 0.6 1012135